Date,Time,Wetness (Wet Dry or Ice),Wind Speed (m/s),Temperature (C),Humidity (%),Pressure (mb),Radiation (W/m^2)
2018-12-15,03:40:00,DRY,2.53,10.20,18.0,780.00,1.8
2018-12-15,03:45:00,DRY,2.10,10.20,17.0,780.00,1.1
2018-12-15,03:50:00,DRY,1.43,10.60,15.7,780.00,1.4
2018-12-15,03:55:00,DRY,0.75,11.00,13.5,780.00,0.8
2018-12-15,04:00:00,DRY,0.53,10.57,15.0,780.00,0.9
2018-12-15,04:05:00,DRY,0.20,9.85,17.5,780.00,1.2
2018-12-15,04:10:00,DRY,0.73,9.63,18.0,780.00,0.6
2018-12-15,04:15:00,DRY,0.45,9.90,17.0,780.00,1.4
2018-12-15,04:20:00,DRY,0.20,9.77,17.0,780.00,1.3
2018-12-15,04:25:00,DRY,0.45,9.75,17.0,780.00,1.9
2018-12-15,04:30:00,DRY,0.90,9.83,17.0,780.00,1.6
2018-12-15,04:35:00,DRY,0.45,10.15,14.0,780.00,0.9
2018-12-15,04:40:00,DRY,0.93,10.93,12.0,780.00,0.6
2018-12-15,04:45:00,DRY,0.85,11.40,11.0,780.00,1.2
2018-12-15,04:50:00,DRY,0.97,11.23,12.3,780.00,1.1
2018-12-15,04:55:00,DRY,0.95,10.15,15.5,780.00,1.1
2018-12-15,05:00:00,DRY,1.17,9.90,15.7,780.00,1.1
2018-12-15,05:05:00,DRY,0.65,10.30,14.0,780.00,1.9
2018-12-15,05:10:00,DRY,0.53,10.77,13.0,780.00,1.0
2018-12-15,05:15:00,DRY,0.60,10.75,12.5,780.00,0.8
2018-12-15,05:20:00,DRY,1.00,10.30,14.0,780.00,1.2
2018-12-15,05:25:00,DRY,1.15,10.20,14.5,780.00,0.2
2018-12-15,05:30:00,DRY,1.30,10.27,14.3,780.00,1.5
2018-12-15,05:35:00,DRY,1.85,9.85,14.5,780.00,0.4
2018-12-15,05:40:00,DRY,2.13,10.03,14.0,780.00,0.7
2018-12-15,05:45:00,DRY,1.55,9.85,14.5,780.00,1.9
2018-12-15,05:50:00,DRY,2.23,10.03,14.7,780.00,1.0
2018-12-15,05:55:00,DRY,2.40,10.00,17.0,780.00,0.9
2018-12-15,06:00:00,DRY,2.30,9.23,19.0,780.00,0.9
2018-12-15,06:05:00,DRY,1.70,9.15,19.0,780.00,1.0
2018-12-15,06:10:00,DRY,2.23,9.93,16.0,780.00,1.4
2018-12-15,06:15:00,DRY,2.05,9.80,16.0,780.00,0.8
2018-12-15,06:20:00,DRY,2.43,9.63,17.3,780.00,0.9
2018-12-15,06:25:00,DRY,4.35,9.50,17.5,780.00,1.1
2018-12-15,06:30:00,DRY,4.17,10.10,14.3,780.00,1.4
2018-12-15,06:35:00,DRY,2.90,10.65,13.0,780.00,0.6
2018-12-15,06:40:00,DRY,3.03,10.83,12.0,780.00,1.5
2018-12-15,06:45:00,DRY,2.55,10.65,12.5,780.00,1.8
2018-12-15,06:50:00,DRY,1.90,10.87,12.0,780.00,1.2
2018-12-15,06:55:00,DRY,2.30,10.25,14.5,780.00,0.6
2018-12-15,07:00:00,DRY,1.87,9.47,17.0,780.00,1.4
2018-12-15,07:05:00,DRY,1.35,10.00,14.0,780.00,0.9
2018-12-15,07:10:00,DRY,2.53,10.30,13.3,780.00,1.6
2018-12-15,07:15:00,DRY,3.35,10.65,12.0,780.00,1.6
2018-12-15,07:20:00,DRY,3.93,10.37,12.0,780.00,1.0
2018-12-15,07:25:00,DRY,2.80,10.60,11.0,780.00,0.9
2018-12-15,07:30:00,DRY,2.37,10.73,11.3,780.00,1.1
2018-12-15,07:35:00,DRY,1.35,10.75,11.0,780.00,1.2
2018-12-15,07:40:00,DRY,1.50,10.63,11.3,780.00,2.0
2018-12-15,07:45:00,DRY,0.40,10.50,12.0,780.00,2.6
2018-12-15,07:50:00,DRY,1.93,10.50,12.0,780.67,3.9
2018-12-15,07:55:00,DRY,2.50,10.50,12.5,780.50,6.2
2018-12-15,08:00:00,DRY,5.27,10.17,12.0,780.33,7.7
2018-12-15,08:05:00,DRY,4.95,10.20,11.5,780.50,10.6
2018-12-15,08:10:00,DRY,4.80,10.07,12.0,780.67,12.3
2018-12-15,08:15:00,DRY,4.25,10.15,12.0,780.50,14.3
2018-12-15,08:20:00,DRY,5.40,10.07,12.0,780.67,16.0
2018-12-15,08:25:00,DRY,5.20,10.15,12.5,780.50,17.3
2018-12-15,08:30:00,DRY,5.77,10.13,12.7,781.00,19.5
2018-12-15,08:35:00,DRY,4.70,10.25,12.0,781.00,21.9
2018-12-15,08:40:00,DRY,4.23,10.43,11.3,781.00,111.7
2018-12-15,08:45:00,DRY,4.60,10.50,11.0,781.00,170.9
2018-12-15,08:50:00,DRY,4.77,10.60,10.3,781.00,188.2
2018-12-15,08:55:00,DRY,5.00,10.60,11.0,781.00,206.4
2018-12-15,09:00:00,DRY,4.97,10.70,12.0,781.00,224.9
2018-12-15,09:05:00,DRY,5.30,10.85,11.5,781.00,243.4
2018-12-15,09:10:00,DRY,4.20,10.77,12.3,781.00,262.1
2018-12-15,09:15:00,DRY,3.70,10.75,12.5,781.00,280.7
2018-12-15,09:20:00,DRY,4.23,10.93,12.3,781.00,297.2
2018-12-15,09:25:00,DRY,3.90,11.10,12.5,781.00,314.3
2018-12-15,09:30:00,DRY,4.17,11.23,12.0,781.00,332.1
2018-12-15,09:35:00,DRY,4.00,11.15,12.5,781.00,348.6
2018-12-15,09:40:00,DRY,2.90,11.10,16.0,781.00,365.6
2018-12-15,09:45:00,DRY,3.30,11.30,13.5,781.00,382.9
2018-12-15,09:50:00,DRY,2.13,11.20,14.3,781.00,398.3
2018-12-15,09:55:00,DRY,3.40,11.10,15.0,781.00,414.4
2018-12-15,10:00:00,DRY,2.37,11.53,17.3,781.00,430.2
2018-12-15,10:05:00,DRY,2.05,11.50,13.5,781.00,446.6
2018-12-15,10:10:00,DRY,2.10,11.77,15.0,781.00,462.1
2018-12-15,10:15:00,DRY,4.00,11.95,18.0,781.00,476.9
2018-12-15,10:20:00,DRY,2.23,12.03,14.3,781.00,491.5
2018-12-15,10:25:00,DRY,2.85,12.05,16.0,781.00,505.9
2018-12-15,10:30:00,DRY,2.13,12.10,12.0,781.00,519.9
2018-12-15,10:35:00,DRY,3.00,12.10,12.0,781.00,533.0
2018-12-15,10:40:00,DRY,2.47,12.13,11.7,781.00,546.0
2018-12-15,10:45:00,DRY,3.55,12.15,11.0,781.00,559.3
2018-12-15,10:50:00,DRY,3.00,12.15,11.5,781.00,571.5
2018-12-15,10:55:00,DRY,3.55,12.30,10.0,781.00,584.1
2018-12-15,11:00:00,DRY,2.33,12.27,10.3,781.00,593.8
2018-12-15,11:05:00,DRY,3.10,12.45,9.5,781.00,605.4
2018-12-15,11:10:00,DRY,3.80,12.37,10.3,781.00,615.2
2018-12-15,11:15:00,DRY,3.45,12.45,9.5,781.00,626.2
2018-12-15,11:20:00,DRY,3.57,12.57,9.0,781.00,635.3
2018-12-15,11:25:00,DRY,4.60,12.30,9.0,781.00,645.5
2018-12-15,11:30:00,DRY,3.67,12.67,12.7,781.00,653.6
2018-12-15,11:35:00,DRY,3.30,12.75,13.0,781.00,661.7
2018-12-15,11:40:00,DRY,3.03,12.80,12.7,781.00,670.3
2018-12-15,11:45:00,DRY,3.20,12.60,14.0,781.00,678.2
2018-12-15,11:50:00,DRY,2.77,12.90,11.7,781.00,684.7
2018-12-15,11:55:00,DRY,2.70,13.00,13.5,781.00,690.9
2018-12-15,12:00:00,DRY,1.37,13.37,13.7,781.00,697.1
2018-12-15,12:05:00,DRY,2.25,13.25,17.5,780.50,704.1
2018-12-15,12:10:00,DRY,1.77,13.27,17.3,780.33,708.9
2018-12-15,12:15:00,DRY,2.35,12.90,10.0,780.00,713.5
2018-12-15,12:20:00,DRY,3.03,13.07,16.7,780.33,716.9
2018-12-15,12:25:00,DRY,1.80,12.55,24.0,780.00,722.5
2018-12-15,12:30:00,DRY,1.03,13.40,25.3,780.00,724.1
2018-12-15,12:35:00,DRY,2.10,13.25,26.5,780.00,726.9
2018-12-15,12:40:00,DRY,1.47,12.93,24.0,780.00,729.3
2018-12-15,12:45:00,DRY,0.90,13.65,20.5,780.00,731.5
2018-12-15,12:50:00,DRY,1.70,13.30,17.7,780.00,733.9
2018-12-15,12:55:00,DRY,1.00,13.85,25.5,780.00,733.9
2018-12-15,13:00:00,DRY,1.77,13.53,20.3,780.00,736.2
2018-12-15,13:05:00,DRY,1.60,13.15,20.0,780.00,735.6
2018-12-15,13:10:00,DRY,0.90,13.57,14.7,780.00,736.0
2018-12-15,13:15:00,DRY,1.15,14.15,20.5,780.00,734.5
2018-12-15,13:20:00,DRY,1.13,13.90,21.0,780.00,734.1
2018-12-15,13:25:00,DRY,1.40,13.85,28.5,780.00,731.5
2018-12-15,13:30:00,DRY,0.30,13.40,27.0,780.00,728.5
2018-12-15,13:35:00,DRY,0.40,13.40,27.0,780.00,726.3
2018-12-15,13:40:00,DRY,1.57,13.10,32.7,780.00,722.4
2018-12-15,13:45:00,DRY,1.85,13.40,29.5,780.00,719.4
2018-12-15,13:50:00,DRY,1.40,12.90,28.7,780.00,715.5
2018-12-15,13:55:00,DRY,1.65,12.85,24.0,780.00,710.9
2018-12-15,14:00:00,DRY,0.87,13.07,23.3,780.00,705.2
2018-12-15,14:05:00,DRY,2.15,13.05,22.5,779.50,700.8
2018-12-15,14:10:00,DRY,0.90,13.03,25.3,779.00,694.4
2018-12-15,14:15:00,DRY,1.50,13.15,28.5,779.00,686.8
2018-12-15,14:20:00,DRY,1.50,12.77,30.0,779.00,680.1
2018-12-15,14:25:00,DRY,0.65,13.40,28.5,779.00,673.2
2018-12-15,14:30:00,DRY,1.37,13.30,24.7,779.00,665.2
2018-12-15,14:35:00,DRY,2.45,12.85,29.5,779.00,656.7
2018-12-15,14:40:00,DRY,2.07,12.90,34.7,779.00,648.4
2018-12-15,14:45:00,DRY,1.45,12.80,39.0,779.00,637.2
2018-12-15,14:50:00,DRY,1.30,12.63,37.0,779.00,629.8
2018-12-15,14:55:00,DRY,1.10,12.65,35.5,779.00,619.5
2018-12-15,15:00:00,DRY,1.17,12.80,37.7,779.00,606.8
2018-12-15,15:05:00,DRY,2.10,12.75,38.5,779.00,596.4
2018-12-15,15:10:00,DRY,0.73,12.63,40.0,779.00,585.1
2018-12-15,15:15:00,DRY,0.55,12.55,45.5,779.00,573.2
2018-12-15,15:20:00,DRY,0.97,13.33,39.7,779.00,560.8
2018-12-15,15:25:00,DRY,0.80,13.50,38.0,779.00,548.2
2018-12-15,15:30:00,DRY,0.87,12.97,31.7,779.00,533.3
2018-12-15,15:35:00,DRY,0.75,13.20,34.0,779.00,520.5
2018-12-15,15:40:00,DRY,0.57,13.13,30.7,779.00,507.7
2018-12-15,15:45:00,DRY,1.20,12.40,33.5,779.00,492.2
2018-12-15,15:50:00,DRY,0.73,12.33,30.7,779.00,477.3
2018-12-15,15:55:00,DRY,0.60,12.50,26.5,779.00,462.2
2018-12-15,16:00:00,DRY,0.90,12.70,24.7,779.00,447.8
2018-12-15,16:05:00,DRY,1.05,12.45,24.0,779.00,432.2
2018-12-15,16:10:00,DRY,2.03,12.43,23.7,779.00,415.0
2018-12-15,16:15:00,DRY,1.75,12.55,22.0,779.00,399.6
2018-12-15,16:20:00,DRY,2.07,12.20,16.3,779.00,383.2
2018-12-15,16:25:00,DRY,2.60,11.85,13.0,779.00,366.5
2018-12-15,16:30:00,DRY,1.97,11.87,18.7,779.00,349.2
2018-12-15,16:35:00,DRY,2.20,11.90,17.5,779.00,333.4
2018-12-15,16:40:00,DRY,2.00,11.80,20.0,779.00,314.7
2018-12-15,16:45:00,DRY,2.80,11.95,14.0,779.00,298.1
2018-12-15,16:50:00,DRY,1.47,12.07,12.3,779.00,280.2
2018-12-15,16:55:00,DRY,1.65,12.30,13.0,779.50,263.9
2018-12-15,17:00:00,DRY,2.67,12.13,12.0,779.00,245.3
2018-12-15,17:05:00,DRY,1.15,11.80,10.0,780.00,227.4
2018-12-15,17:10:00,DRY,1.23,12.20,17.0,779.67,209.4
2018-12-15,17:15:00,DRY,1.50,12.20,13.0,779.00,192.6
2018-12-15,17:20:00,DRY,1.70,12.03,14.0,779.00,176.3
2018-12-15,17:25:00,DRY,1.25,12.10,13.5,779.00,159.7
2018-12-15,17:30:00,DRY,1.93,12.17,9.3,779.00,141.9
2018-12-15,17:35:00,DRY,0.95,12.00,12.0,779.00,120.7
2018-12-15,17:40:00,DRY,1.40,11.90,11.7,779.33,96.7
2018-12-15,17:45:00,DRY,1.15,11.80,12.5,779.00,75.9
2018-12-15,17:50:00,DRY,1.30,11.70,12.7,779.00,57.1
2018-12-15,17:55:00,DRY,1.40,11.50,12.0,779.50,41.0
2018-12-15,18:00:00,DRY,0.80,11.10,11.7,779.00,27.6
2018-12-15,18:05:00,DRY,0.35,11.15,11.0,779.00,18.3
2018-12-15,18:10:00,DRY,0.63,11.30,10.7,779.67,14.2
2018-12-15,18:15:00,DRY,0.95,11.20,9.5,780.00,10.9
2018-12-15,18:20:00,DRY,1.20,10.97,11.0,780.00,6.8
2018-12-15,18:25:00,DRY,2.40,10.95,11.0,779.50,3.9
2018-12-15,18:30:00,DRY,2.07,10.50,11.7,779.00,2.5
2018-12-15,18:35:00,DRY,1.30,10.55,12.5,780.00,1.7
2018-12-15,18:40:00,DRY,1.50,10.30,12.3,780.00,0.5
2018-12-15,18:45:00,DRY,1.10,10.15,13.0,780.00,1.6
2018-12-15,18:50:00,DRY,3.00,10.17,12.3,779.33,1.1
2018-12-15,18:55:00,DRY,1.45,10.35,12.5,780.00,2.0
2018-12-15,19:00:00,DRY,1.87,9.73,15.7,779.67,1.5
2018-12-15,19:05:00,DRY,1.10,9.60,16.0,779.00,1.4
2018-12-15,19:10:00,DRY,1.77,9.40,19.3,779.67,1.2
2018-12-15,19:15:00,DRY,1.60,8.95,22.5,779.50,1.1
2018-12-15,19:20:00,DRY,1.90,8.80,24.7,780.00,0.5
2018-12-15,19:25:00,DRY,1.95,8.15,32.0,780.00,1.9
2018-12-15,19:30:00,DRY,1.03,7.63,34.3,779.67,1.1
2018-12-15,19:35:00,DRY,0.45,7.45,37.0,779.50,1.6
2018-12-15,19:40:00,DRY,0.90,6.83,42.7,779.67,1.3
2018-12-15,19:45:00,DRY,4.05,6.30,45.5,780.00,1.3
2018-12-15,19:50:00,DRY,4.20,6.17,46.7,779.00,0.9
2018-12-15,19:55:00,DRY,4.40,6.30,47.0,780.00,1.6
2018-12-15,20:00:00,DRY,3.17,6.57,44.7,780.00,1.1
2018-12-15,20:05:00,DRY,2.15,6.75,42.5,780.00,0.7
2018-12-15,20:10:00,DRY,3.50,8.30,28.0,780.00,1.4
2018-12-15,20:15:00,DRY,4.30,9.70,20.0,780.00,1.6
2018-12-15,20:20:00,DRY,4.60,9.57,19.7,780.00,0.9
2018-12-15,20:25:00,DRY,3.80,10.00,16.0,780.00,1.4
2018-12-15,20:30:00,DRY,2.17,9.83,20.7,780.00,1.5
2018-12-15,20:35:00,DRY,4.50,9.15,22.0,780.00,0.8
2018-12-15,20:40:00,DRY,3.20,8.00,34.3,780.00,1.1
2018-12-15,20:45:00,DRY,3.85,8.40,26.0,780.00,1.0
2018-12-15,20:50:00,DRY,3.63,9.40,24.7,780.00,1.1
2018-12-15,20:55:00,DRY,5.15,9.30,22.0,780.00,1.4
2018-12-15,21:00:00,DRY,3.80,10.07,17.0,780.00,1.0
2018-12-15,21:05:00,DRY,5.35,9.90,18.0,780.00,2.2
2018-12-15,21:10:00,DRY,5.90,10.33,13.0,780.00,1.3
2018-12-15,21:15:00,DRY,6.15,11.05,10.0,780.00,1.1
2018-12-15,21:20:00,DRY,4.80,11.23,9.7,780.00,1.5
2018-12-15,21:25:00,DRY,4.50,10.85,14.5,780.00,1.4
2018-12-15,21:30:00,DRY,4.40,11.33,10.0,780.00,0.9
2018-12-15,21:35:00,DRY,6.25,11.40,9.0,780.00,1.8
2018-12-15,21:40:00,DRY,4.67,11.37,9.0,780.00,1.1
2018-12-15,21:45:00,DRY,4.50,11.15,9.0,780.00,1.3
2018-12-15,21:50:00,DRY,4.87,11.40,10.7,780.00,1.4
2018-12-15,21:55:00,DRY,5.90,11.35,11.0,780.00,1.4
2018-12-15,22:00:00,DRY,5.43,11.20,10.7,780.00,1.3
2018-12-15,22:05:00,DRY,5.20,11.30,9.5,780.00,1.3
2018-12-15,22:10:00,DRY,5.27,11.43,9.0,780.00,1.5
2018-12-15,22:15:00,DRY,3.60,11.15,11.0,780.00,0.8
2018-12-15,22:20:00,DRY,5.10,11.03,10.7,780.00,1.2
2018-12-15,22:25:00,DRY,5.30,11.00,12.0,780.00,1.2
2018-12-15,22:30:00,DRY,5.50,11.15,9.0,780.00,0.8
2018-12-15,22:35:00,DRY,4.85,11.00,13.0,780.00,0.9
2018-12-15,22:40:00,DRY,3.27,10.40,12.0,780.00,1.0
2018-12-15,22:45:00,DRY,3.00,10.50,12.5,780.00,1.9
2018-12-15,22:50:00,DRY,3.63,10.57,12.0,780.00,0.7
2018-12-15,22:55:00,DRY,4.05,10.80,11.5,780.00,1.3
2018-12-15,23:00:00,DRY,4.67,10.93,10.0,780.00,1.1
2018-12-15,23:05:00,DRY,4.95,10.90,13.5,780.00,1.1
2018-12-15,23:10:00,DRY,4.70,10.73,9.3,780.00,1.4
2018-12-15,23:15:00,DRY,3.70,10.85,12.0,780.00,0.9
2018-12-15,23:20:00,DRY,4.40,10.63,12.3,780.00,1.1
2018-12-15,23:25:00,DRY,4.20,10.55,13.0,780.00,1.2
2018-12-15,23:30:00,DRY,5.37,10.63,11.7,780.00,1.1
2018-12-15,23:35:00,DRY,5.60,10.90,9.5,780.00,1.1
2018-12-15,23:40:00,DRY,4.70,10.90,11.3,780.00,2.4
2018-12-15,23:45:00,DRY,4.75,10.90,11.0,780.00,1.4
2018-12-15,23:50:00,DRY,5.77,10.80,13.0,780.00,1.2
2018-12-15,23:55:00,DRY,5.00,10.95,11.0,780.00,1.2
2018-12-16,00:00:00,DRY,3.37,10.83,13.0,780.00,1.0
2018-12-16,00:05:00,DRY,5.45,10.75,11.0,780.00,1.1
2018-12-16,00:10:00,DRY,4.17,10.93,12.3,780.00,1.0
2018-12-16,00:15:00,DRY,5.55,11.25,10.5,780.00,1.2
2018-12-16,00:20:00,DRY,3.43,10.67,14.7,779.67,2.0
2018-12-16,00:25:00,DRY,3.95,10.70,13.0,780.00,1.1
2018-12-16,00:30:00,DRY,3.63,10.77,15.7,780.00,1.3
2018-12-16,00:35:00,DRY,4.30,10.70,15.0,780.00,0.9
2018-12-16,00:40:00,DRY,4.40,10.40,16.3,780.00,1.4
2018-12-16,00:45:00,DRY,4.15,10.25,19.5,780.00,0.9
2018-12-16,00:50:00,DRY,3.53,10.40,18.0,780.00,0.9
2018-12-16,00:55:00,DRY,4.35,10.60,16.0,780.00,1.0
2018-12-16,01:00:00,DRY,3.47,10.40,18.3,779.67,1.2
2018-12-16,01:05:00,DRY,3.35,10.05,19.5,779.50,1.0
2018-12-16,01:10:00,DRY,4.40,10.40,17.0,779.33,1.1
2018-12-16,01:15:00,DRY,3.85,10.45,16.0,780.00,2.8
2018-12-16,01:20:00,DRY,4.83,10.63,15.3,779.33,1.4
2018-12-16,01:25:00,DRY,4.10,10.60,14.5,779.00,2.2
2018-12-16,01:30:00,DRY,4.20,10.63,15.0,779.00,1.5
2018-12-16,01:35:00,DRY,3.80,10.70,13.5,779.00,1.3
2018-12-16,01:40:00,DRY,3.33,10.30,16.7,779.00,0.6
2018-12-16,01:45:00,DRY,3.90,10.20,19.5,779.00,0.7
2018-12-16,01:50:00,DRY,2.60,9.80,20.0,779.00,1.1
2018-12-16,01:55:00,DRY,2.65,10.20,19.0,779.00,0.8
2018-12-16,02:00:00,DRY,3.57,10.50,13.7,779.00,1.3
2018-12-16,02:05:00,DRY,4.35,10.85,12.0,779.00,0.8
2018-12-16,02:10:00,DRY,3.83,10.77,14.3,779.00,0.8
2018-12-16,02:15:00,DRY,2.40,10.50,14.5,779.00,0.7
2018-12-16,02:20:00,DRY,2.23,10.67,14.3,779.00,1.3
2018-12-16,02:25:00,DRY,1.95,10.60,14.5,779.00,0.4
2018-12-16,02:30:00,DRY,2.83,10.57,16.0,779.00,1.5
2018-12-16,02:35:00,DRY,2.75,10.80,14.5,779.00,1.2
2018-12-16,02:40:00,DRY,2.13,10.87,14.0,779.00,1.5
2018-12-16,02:45:00,DRY,2.35,11.10,13.0,779.00,1.1
2018-12-16,02:50:00,DRY,3.67,11.27,12.7,779.00,1.0
2018-12-16,02:55:00,DRY,2.25,11.25,12.0,779.00,0.5
2018-12-16,03:00:00,DRY,4.00,11.13,13.0,779.00,1.3
2018-12-16,03:05:00,DRY,2.30,11.20,13.0,779.00,1.0
2018-12-16,03:10:00,DRY,2.57,10.97,13.0,779.00,1.5
2018-12-16,03:15:00,DRY,2.60,11.20,12.5,779.00,2.0
2018-12-16,03:20:00,DRY,2.60,10.83,13.3,779.00,1.2
2018-12-16,03:25:00,DRY,2.65,11.25,13.0,779.00,0.8
2018-12-16,03:30:00,DRY,2.70,11.13,13.0,779.00,1.3
2018-12-16,03:35:00,DRY,3.60,10.95,14.5,779.00,1.1
2018-12-16,03:40:00,DRY,3.13,10.57,16.0,779.00,0.9
2018-12-16,03:45:00,DRY,3.00,11.00,15.5,779.00,0.6
2018-12-16,03:50:00,DRY,1.73,10.90,15.7,779.00,0.9
2018-12-16,03:55:00,DRY,2.15,10.65,17.0,779.00,0.6
2018-12-16,04:00:00,DRY,1.20,10.40,16.7,779.00,1.5
2018-12-16,04:05:00,DRY,0.45,10.25,17.5,779.00,1.1
2018-12-16,04:10:00,DRY,0.73,10.00,18.7,779.00,0.7
2018-12-16,04:15:00,DRY,2.15,10.30,18.0,779.00,1.4
2018-12-16,04:20:00,DRY,1.40,10.23,20.3,779.00,0.8
2018-12-16,04:25:00,DRY,0.65,10.10,19.0,779.00,0.7
2018-12-16,04:30:00,DRY,0.30,9.83,19.0,779.00,0.9
2018-12-16,04:35:00,DRY,0.60,9.75,19.0,778.50,1.2
2018-12-16,04:40:00,DRY,1.73,9.80,19.7,779.00,1.2
2018-12-16,04:45:00,DRY,2.25,9.95,19.0,779.00,1.2
2018-12-16,04:50:00,DRY,1.23,10.23,18.3,779.00,1.3
2018-12-16,04:55:00,DRY,1.95,10.00,19.5,778.00,0.6
2018-12-16,05:00:00,DRY,2.47,9.90,20.7,778.33,0.7
2018-12-16,05:05:00,DRY,2.05,9.90,20.5,778.50,1.6
2018-12-16,05:10:00,DRY,2.07,10.00,21.0,778.00,0.7
2018-12-16,05:15:00,DRY,1.95,10.15,19.0,778.00,1.3
2018-12-16,05:20:00,DRY,1.83,10.20,18.0,778.00,1.2
2018-12-16,05:25:00,DRY,1.75,10.35,18.0,778.00,1.4
2018-12-16,05:30:00,DRY,2.47,10.30,18.3,778.00,1.2
2018-12-16,05:35:00,DRY,1.95,10.55,18.5,778.00,1.2
2018-12-16,05:40:00,DRY,2.10,10.33,18.7,778.00,1.1
2018-12-16,05:45:00,DRY,1.95,10.25,18.5,778.00,0.9
2018-12-16,05:50:00,DRY,2.27,10.60,18.3,778.00,0.6
2018-12-16,05:55:00,DRY,1.70,10.55,17.5,778.00,0.8
2018-12-16,06:00:00,DRY,2.77,10.23,19.0,778.00,1.1
2018-12-16,06:05:00,DRY,2.05,10.30,18.5,778.00,1.5
2018-12-16,06:10:00,DRY,1.73,10.27,18.7,778.00,1.4
2018-12-16,06:15:00,DRY,2.20,10.05,20.0,778.00,0.7
2018-12-16,06:20:00,DRY,2.27,10.00,20.7,778.00,1.7
2018-12-16,06:25:00,DRY,2.40,10.00,20.5,778.00,0.8
2018-12-16,06:30:00,DRY,2.43,9.80,20.7,778.00,1.4
2018-12-16,06:35:00,DRY,1.70,9.90,20.5,778.00,0.3
2018-12-16,06:40:00,DRY,1.93,9.93,20.0,778.00,0.8
2018-12-16,06:45:00,DRY,2.00,10.80,18.0,778.50,0.3
2018-12-16,06:50:00,DRY,1.93,10.13,19.3,778.00,1.2
2018-12-16,06:55:00,DRY,2.55,9.95,20.0,778.50,0.5
2018-12-16,07:00:00,DRY,2.17,9.93,19.7,778.33,0.9
2018-12-16,07:05:00,DRY,2.45,10.25,19.0,778.00,0.9
2018-12-16,07:10:00,DRY,2.73,10.37,19.3,778.33,0.8
2018-12-16,07:15:00,DRY,2.00,10.10,20.0,779.00,0.6
2018-12-16,07:20:00,DRY,1.73,10.13,19.7,778.33,1.3
2018-12-16,07:25:00,DRY,2.15,10.00,20.0,779.00,2.8
2018-12-16,07:30:00,DRY,2.53,9.50,21.7,778.33,1.4
2018-12-16,07:35:00,DRY,3.00,9.50,22.0,778.50,2.6
2018-12-16,07:40:00,DRY,5.63,9.27,23.3,778.33,1.5
2018-12-16,07:45:00,DRY,4.55,9.55,23.0,778.50,2.3
2018-12-16,07:50:00,DRY,3.87,9.50,23.3,779.00,4.0
2018-12-16,07:55:00,DRY,4.60,9.50,23.0,779.00,6.0
2018-12-16,08:00:00,DRY,4.67,9.43,23.7,779.00,8.2
2018-12-16,08:05:00,DRY,3.20,9.55,23.5,779.00,10.6
2018-12-16,08:10:00,DRY,4.43,9.70,23.3,779.00,12.7
2018-12-16,08:15:00,DRY,4.00,9.75,23.0,779.00,14.3
2018-12-16,08:20:00,DRY,4.53,9.80,23.0,779.00,15.7
2018-12-16,08:25:00,DRY,3.95,9.80,23.0,779.00,17.4
2018-12-16,08:30:00,DRY,4.23,9.60,23.0,779.00,18.7
2018-12-16,08:35:00,DRY,4.30,9.80,23.0,779.00,21.8
2018-12-16,08:40:00,DRY,4.00,10.10,23.0,779.00,95.7
2018-12-16,08:45:00,DRY,3.20,10.15,23.5,779.00,167.1
2018-12-16,08:50:00,DRY,2.67,10.10,23.0,779.00,185.1
2018-12-16,08:55:00,DRY,3.60,10.15,24.0,779.00,203.1
2018-12-16,09:00:00,DRY,3.70,10.17,24.0,779.00,220.7
2018-12-16,09:05:00,DRY,2.45,10.20,24.0,779.00,239.6
2018-12-16,09:10:00,DRY,3.40,10.10,24.7,779.00,258.5
2018-12-16,09:15:00,DRY,4.35,10.20,25.0,779.00,276.1
2018-12-16,09:20:00,DRY,3.57,10.13,25.3,779.00,293.5
2018-12-16,09:25:00,DRY,3.40,10.30,24.0,779.00,311.7
2018-12-16,09:30:00,DRY,2.93,10.33,25.0,779.00,328.7
2018-12-16,09:35:00,DRY,2.40,10.30,25.0,779.00,345.2
2018-12-16,09:40:00,DRY,3.70,10.37,24.3,779.00,363.6
2018-12-16,09:45:00,DRY,4.15,10.45,23.0,779.00,379.5
2018-12-16,09:50:00,DRY,4.07,10.50,24.3,779.00,396.0
2018-12-16,09:55:00,DRY,4.15,10.50,24.0,779.00,412.3
2018-12-16,10:00:00,DRY,2.10,10.43,25.7,779.00,428.7
2018-12-16,10:05:00,DRY,3.60,10.55,25.0,779.00,444.2
2018-12-16,10:10:00,DRY,3.40,10.53,24.7,779.00,459.7
2018-12-16,10:15:00,DRY,2.85,10.50,24.0,779.00,473.9
2018-12-16,10:20:00,DRY,2.87,10.63,25.0,779.00,489.5
2018-12-16,10:25:00,DRY,4.75,10.50,25.0,779.00,502.5
2018-12-16,10:30:00,DRY,2.90,10.60,24.0,779.00,517.4
2018-12-16,10:35:00,DRY,3.25,10.75,25.5,779.00,530.2
2018-12-16,10:40:00,DRY,2.87,10.70,25.7,779.00,544.4
2018-12-16,10:45:00,DRY,2.40,10.80,24.5,779.00,556.5
2018-12-16,10:50:00,DRY,3.27,10.93,25.0,779.00,569.1
2018-12-16,10:55:00,DRY,3.50,10.80,26.0,779.00,579.8
2018-12-16,11:00:00,DRY,3.77,11.07,27.7,779.00,591.8
2018-12-16,11:05:00,DRY,2.40,10.70,27.5,779.00,602.2
2018-12-16,11:10:00,DRY,2.43,10.80,28.3,779.00,613.0
2018-12-16,11:15:00,DRY,3.50,10.90,29.0,779.00,623.6
2018-12-16,11:20:00,DRY,4.03,10.57,30.7,779.00,632.5
2018-12-16,11:25:00,DRY,4.20,10.40,30.5,779.00,642.0
2018-12-16,11:30:00,DRY,2.23,10.57,29.0,779.00,651.1
2018-12-16,11:35:00,DRY,4.00,10.75,29.5,779.00,659.9
2018-12-16,11:40:00,DRY,1.23,10.63,29.0,779.00,667.2
2018-12-16,11:45:00,DRY,3.45,10.55,30.0,779.00,674.3
2018-12-16,11:50:00,DRY,2.10,10.47,28.7,779.00,681.8
2018-12-16,11:55:00,DRY,1.35,10.75,32.0,779.00,688.7
2018-12-16,12:00:00,DRY,2.47,10.77,28.7,779.00,695.8
2018-12-16,12:05:00,DRY,1.85,10.45,31.5,779.00,701.5
2018-12-16,12:10:00,DRY,1.87,10.20,30.3,779.00,707.2
2018-12-16,12:15:00,DRY,1.20,10.85,32.5,779.00,711.5
2018-12-16,12:20:00,DRY,1.80,10.67,33.0,779.00,716.4
2018-12-16,12:25:00,DRY,1.10,10.40,36.0,779.00,719.9
2018-12-16,12:30:00,DRY,0.70,10.60,35.0,779.00,723.0
2018-12-16,12:35:00,DRY,1.70,10.70,32.0,779.00,725.2
2018-12-16,12:40:00,DRY,1.67,10.27,35.7,779.00,727.3
2018-12-16,12:45:00,DRY,2.25,10.25,36.5,778.00,729.5
2018-12-16,12:50:00,DRY,1.60,10.13,37.0,778.00,730.5
2018-12-16,12:55:00,DRY,1.45,10.00,40.0,778.00,732.3
2018-12-16,13:00:00,DRY,1.25,10.50,40.5,778.00,732.8
2018-12-16,13:05:00,DRY,1.90,9.95,35.5,778.00,733.6
2018-12-16,13:10:00,DRY,1.70,10.63,38.0,778.00,733.2
2018-12-16,13:15:00,DRY,1.45,10.30,37.5,778.00,732.6
2018-12-16,13:20:00,DRY,3.63,10.07,36.7,778.00,730.1
2018-12-16,13:25:00,DRY,2.50,9.80,39.0,778.00,728.8
2018-12-16,13:30:00,DRY,1.70,10.30,41.0,778.00,726.7
2018-12-16,13:35:00,DRY,1.20,10.00,40.0,778.00,724.4
2018-12-16,13:40:00,DRY,0.73,10.50,41.0,778.00,721.4
2018-12-16,13:45:00,DRY,1.10,9.85,44.5,778.00,719.3
2018-12-16,13:50:00,DRY,1.40,9.97,41.3,778.00,713.1
2018-12-16,13:55:00,DRY,1.45,10.05,44.0,778.00,707.0
2018-12-16,14:00:00,DRY,1.13,10.23,42.0,777.33,704.4
2018-12-16,14:05:00,DRY,1.20,10.20,43.5,777.00,697.4
2018-12-16,14:10:00,DRY,1.87,9.83,46.7,777.00,690.2
2018-12-16,14:15:00,DRY,1.80,10.00,45.5,777.00,685.3
2018-12-16,14:20:00,DRY,2.13,10.13,47.3,777.33,676.4
2018-12-16,14:25:00,DRY,1.25,10.30,48.0,777.00,671.9
2018-12-16,14:30:00,DRY,1.47,10.40,44.0,777.00,663.8
2018-12-16,14:35:00,DRY,1.20,9.35,48.5,777.00,655.0
2018-12-16,14:40:00,DRY,1.50,9.23,51.7,777.33,646.1
2018-12-16,14:45:00,DRY,1.65,9.15,52.5,777.00,635.3
2018-12-16,14:50:00,DRY,0.87,9.23,55.0,777.00,625.7
2018-12-16,14:55:00,DRY,1.10,9.25,52.0,777.50,615.9
2018-12-16,15:00:00,DRY,0.97,9.30,56.3,777.33,605.3
2018-12-16,15:05:00,DRY,1.80,10.05,42.0,777.50,597.0
2018-12-16,15:10:00,DRY,1.50,9.53,45.3,777.00,585.2
2018-12-16,15:15:00,DRY,1.00,9.20,47.5,777.00,573.8
2018-12-16,15:20:00,DRY,1.07,9.33,45.3,777.00,561.3
2018-12-16,15:25:00,DRY,1.90,9.40,53.0,777.00,548.2
2018-12-16,15:30:00,DRY,1.17,10.30,57.3,777.00,535.0
2018-12-16,15:35:00,DRY,2.50,9.80,53.5,777.00,523.3
2018-12-16,15:40:00,DRY,1.43,9.63,55.7,777.00,509.1
2018-12-16,15:45:00,DRY,2.15,9.50,55.5,777.00,494.4
2018-12-16,15:50:00,DRY,1.20,9.40,56.0,777.00,480.4
2018-12-16,15:55:00,DRY,1.75,9.75,50.5,777.00,465.7
2018-12-16,16:00:00,DRY,2.00,9.60,52.7,777.00,449.8
2018-12-16,16:05:00,DRY,1.05,9.65,49.0,777.00,434.1
2018-12-16,16:10:00,DRY,1.90,9.23,57.0,777.00,420.0
2018-12-16,16:15:00,DRY,1.65,9.15,65.0,777.00,402.6
2018-12-16,16:20:00,DRY,1.93,9.07,51.0,777.00,387.2
2018-12-16,16:25:00,DRY,1.55,9.00,53.0,777.00,369.4
2018-12-16,16:30:00,DRY,2.43,8.73,53.0,777.00,352.9
2018-12-16,16:35:00,DRY,3.10,8.65,56.0,777.00,334.1
2018-12-16,16:40:00,DRY,2.00,8.63,50.7,777.00,317.2
2018-12-16,16:45:00,DRY,2.20,8.45,54.0,777.00,301.1
2018-12-16,16:50:00,DRY,2.57,8.43,49.3,777.00,282.8
2018-12-16,16:55:00,DRY,2.70,8.25,44.5,777.00,265.4
2018-12-16,17:00:00,DRY,2.80,8.40,45.3,777.00,246.1
2018-12-16,17:05:00,DRY,2.15,8.40,42.0,777.00,229.4
2018-12-16,17:10:00,DRY,2.20,8.07,53.0,777.00,211.9
2018-12-16,17:15:00,DRY,2.75,8.00,46.5,777.00,194.2
2018-12-16,17:20:00,DRY,1.33,8.37,40.7,777.00,177.5
2018-12-16,17:25:00,DRY,2.45,8.10,51.0,777.00,160.2
2018-12-16,17:30:00,DRY,2.17,7.73,47.7,777.00,143.7
2018-12-16,17:35:00,DRY,1.75,7.65,46.5,777.00,121.3
2018-12-16,17:40:00,DRY,3.33,7.60,42.7,777.00,98.6
2018-12-16,17:45:00,DRY,2.80,7.45,43.5,777.00,76.8
2018-12-16,17:50:00,DRY,4.87,7.53,39.7,777.00,58.0
2018-12-16,17:55:00,DRY,5.00,7.50,38.0,777.00,41.9
2018-12-16,18:00:00,DRY,3.80,7.40,40.0,777.00,29.3